When you browse on this site, cookies collect data to enhance your experience and personalize the content and advertising you see.
Visit our Privacy Policy to learn more. By continuing to use the site, you agree to this use of cookies and data.
  • In France
  • List of Countries
  • For 7 days
  • Water Temperature
  • Satellite Maps
  • Weather Map
  • Weather Widgets
  • user-avatar
    Login

    Hourly Weather Ruse

    Today, 27 May, Monday

    Time Temperature Precipitation Wind Pressure Humidity
    00:00 +18°C° 0 mm 2 mps 756 mmHg 76%
    01:00 +18°C° 0 mm 2 mps 756 mmHg 78%
    02:00 +17°C° 0 mm 2 mps 756 mmHg 80%
    03:00 +17°C° 0 mm 2 mps 756 mmHg 81%
    04:00 +17°C° 0 mm 2 mps 756 mmHg 81%
    05:00 +17°C° 0 mm 2 mps 756 mmHg 82%
    06:00 +19°C° 0 mm 2 mps 756 mmHg 77%
    07:00 +21°C° 0 mm 2 mps 756 mmHg 72%
    08:00 +24°C° 0 mm 2 mps 756 mmHg 66%
    09:00 +25°C° 0 mm 3 mps 756 mmHg 61%
    10:00 +27°C° 0 mm 3 mps 756 mmHg 55%
    11:00 +29°C° 0 mm 4 mps 756 mmHg 49%
    12:00 +29°C° 0 mm 4 mps 755 mmHg 48%
    13:00 +30°C° 0 mm 5 mps 755 mmHg 48%
    14:00 +30°C° 0 mm 5 mps 754 mmHg 47%
    15:00 +30°C° 0 mm 5 mps 754 mmHg 50%
    16:00 +30°C° 0 mm 4 mps 754 mmHg 53%
    17:00 +30°C° 0 mm 4 mps 754 mmHg 57%
    18:00 +28°C° 0 mm 4 mps 754 mmHg 60%
    19:00 +25°C° 0 mm 5 mps 754 mmHg 63%
    20:00 +22°C° 0 mm 5 mps 754 mmHg 66%
    21:00 +22°C° 0 mm 5 mps 754 mmHg 64%
    22:00 +21°C° 0 mm 5 mps 754 mmHg 62%
    23:00 +21°C° 0 mm 5 mps 754 mmHg 60%

    Tomorrow, 28 May, Tuesday

    Time Temperature Precipitation Wind Pressure Humidity
    00:00 +20°C° 0.3 mm 5 mps 754 mmHg 66%
    01:00 +19°C° 0.3 mm 4 mps 754 mmHg 72%
    02:00 +17°C° 0.3 mm 4 mps 754 mmHg 78%
    03:00 +17°C° 0.1 mm 3 mps 753 mmHg 79%
    04:00 +16°C° 0.1 mm 3 mps 753 mmHg 80%
    05:00 +16°C° 0.1 mm 3 mps 753 mmHg 81%
    06:00 +18°C° 0.1 mm 3 mps 753 mmHg 76%
    07:00 +20°C° 0.1 mm 3 mps 753 mmHg 70%
    08:00 +22°C° 0.1 mm 4 mps 753 mmHg 65%
    09:00 +26°C° 0 mm 4 mps 752 mmHg 58%
    10:00 +28°C° 0 mm 5 mps 752 mmHg 51%
    11:00 +30°C° 0 mm 6 mps 752 mmHg 44%
    12:00 +32°C° 0 mm 6 mps 751 mmHg 43%
    13:00 +32°C° 0 mm 6 mps 751 mmHg 43%
    14:00 +33°C° 0 mm 7 mps 750 mmHg 42%
    15:00 +32°C° 0 mm 6 mps 750 mmHg 45%
    16:00 +32°C° 0 mm 6 mps 749 mmHg 49%
    17:00 +32°C° 0 mm 5 mps 749 mmHg 52%
    18:00 +28°C° 0 mm 5 mps 749 mmHg 53%
    19:00 +26°C° 0 mm 5 mps 749 mmHg 54%
    20:00 +23°C° 0 mm 5 mps 749 mmHg 55%
    21:00 +22°C° 0 mm 5 mps 749 mmHg 57%
    22:00 +21°C° 0 mm 4 mps 750 mmHg 59%
    23:00 +20°C° 0 mm 4 mps 750 mmHg 61%

    Day after tomorrow, 29 May, Wednesday

    Time Temperature Precipitation Wind Pressure Humidity
    00:00 +20°C° 0 mm 4 mps 750 mmHg 66%
    01:00 +19°C° 0 mm 4 mps 750 mmHg 71%
    02:00 +19°C° 0 mm 4 mps 750 mmHg 76%
    03:00 +18°C° 0 mm 3 mps 751 mmHg 80%
    04:00 +18°C° 0 mm 3 mps 751 mmHg 84%
    05:00 +17°C° 0 mm 2 mps 751 mmHg 88%
    06:00 +19°C° 0 mm 2 mps 751 mmHg 82%
    07:00 +21°C° 0 mm 2 mps 751 mmHg 77%
    08:00 +23°C° 0 mm 2 mps 751 mmHg 71%
    09:00 +25°C° 0 mm 2 mps 751 mmHg 65%
    10:00 +26°C° 0 mm 1 mps 752 mmHg 58%
    11:00 +28°C° 0 mm 1 mps 752 mmHg 52%
    12:00 +29°C° 0 mm 1 mps 751 mmHg 50%
    13:00 +29°C° 0 mm 1 mps 751 mmHg 47%
    14:00 +30°C° 0 mm 1 mps 751 mmHg 45%
    15:00 +30°C° 0 mm 1 mps 751 mmHg 46%
    16:00 +30°C° 0 mm 1 mps 751 mmHg 47%
    17:00 +28°C° 0 mm 0 mps 751 mmHg 48%
    18:00 +28°C° 0 mm 1 mps 751 mmHg 53%
    19:00 +26°C° 0 mm 1 mps 751 mmHg 57%
    20:00 +25°C° 0 mm 1 mps 752 mmHg 62%
    21:00 +24°C° 0.7 mm 1 mps 752 mmHg 67%
    22:00 +23°C° 0.7 mm 1 mps 753 mmHg 73%
    23:00 +22°C° 0.7 mm 1 mps 753 mmHg 78%

    30 May, Thursday

    Time Temperature Precipitation Wind Pressure Humidity
    00:00 +21°C° 0.1 mm 1 mps 753 mmHg 81%
    01:00 +20°C° 0.1 mm 1 mps 753 mmHg 84%
    02:00 +19°C° 0.1 mm 2 mps 753 mmHg 86%
    03:00 +18°C° 0 mm 2 mps 753 mmHg 88%
    04:00 +18°C° 0 mm 2 mps 753 mmHg 89%
    05:00 +17°C° 0 mm 2 mps 753 mmHg 90%
    06:00 +19°C° 0 mm 2 mps 753 mmHg 85%
    07:00 +20°C° 0 mm 2 mps 754 mmHg 80%
    08:00 +22°C° 0 mm 3 mps 754 mmHg 75%
    09:00 +24°C° 0.1 mm 3 mps 754 mmHg 71%
    10:00 +25°C° 0.1 mm 4 mps 754 mmHg 67%
    11:00 +26°C° 0.1 mm 4 mps 754 mmHg 63%
    12:00 +27°C° 0.2 mm 4 mps 753 mmHg 60%
    13:00 +27°C° 0.2 mm 3 mps 753 mmHg 57%
    14:00 +28°C° 0.2 mm 3 mps 753 mmHg 54%
    15:00 +28°C° 0.2 mm 3 mps 753 mmHg 56%
    16:00 +28°C° 0.2 mm 3 mps 753 mmHg 58%
    17:00 +27°C° 0.2 mm 3 mps 753 mmHg 60%
    18:00 +25°C° 0.3 mm 3 mps 753 mmHg 66%
    19:00 +22°C° 0.3 mm 4 mps 753 mmHg 73%
    20:00 +20°C° 0.3 mm 4 mps 753 mmHg 80%
    21:00 +19°C° 0.2 mm 4 mps 753 mmHg 85%
    22:00 +18°C° 0.2 mm 4 mps 753 mmHg 89%
    23:00 +17°C° 0.2 mm 4 mps 754 mmHg 94%

    31 May, Friday

    Time Temperature Precipitation Wind Pressure Humidity
    00:00 +17°C° 0.3 mm 3 mps 753 mmHg 94%
    01:00 +17°C° 0.3 mm 3 mps 753 mmHg 94%
    02:00 +17°C° 0.3 mm 3 mps 753 mmHg 94%
    03:00 +17°C° 0 mm 4 mps 753 mmHg 93%
    04:00 +15°C° 0 mm 4 mps 753 mmHg 92%
    05:00 +15°C° 0 mm 4 mps 753 mmHg 92%
    06:00 +15°C° 0 mm 5 mps 753 mmHg 88%
    07:00 +16°C° 0 mm 5 mps 753 mmHg 84%
    08:00 +17°C° 0 mm 5 mps 753 mmHg 80%
    09:00 +19°C° 0 mm 5 mps 753 mmHg 76%
    10:00 +20°C° 0 mm 5 mps 753 mmHg 72%
    11:00 +21°C° 0 mm 5 mps 752 mmHg 68%
    12:00 +22°C° 0 mm 5 mps 752 mmHg 66%
    13:00 +23°C° 0 mm 5 mps 752 mmHg 64%
    14:00 +25°C° 0 mm 5 mps 752 mmHg 62%
    15:00 +23°C° 0 mm 5 mps 752 mmHg 62%
    16:00 +23°C° 0 mm 5 mps 751 mmHg 62%
    17:00 +23°C° 0 mm 4 mps 751 mmHg 62%
    18:00 +22°C° 0.1 mm 4 mps 751 mmHg 67%
    19:00 +21°C° 0.1 mm 4 mps 752 mmHg 72%
    20:00 +19°C° 0.1 mm 3 mps 752 mmHg 77%
    21:00 +19°C° 0.2 mm 3 mps 752 mmHg 78%
    22:00 +18°C° 0.2 mm 4 mps 752 mmHg 79%
    23:00 +17°C° 0.2 mm 4 mps 752 mmHg 81%

    1 June, Saturday

    Time Temperature Precipitation Wind Pressure Humidity
    00:00 +17°C° 0.1 mm 4 mps 752 mmHg 82%
    01:00 +17°C° 0.1 mm 4 mps 752 mmHg 84%
    02:00 +15°C° 0.1 mm 4 mps 751 mmHg 86%
    03:00 +15°C° 0.1 mm 4 mps 751 mmHg 88%
    04:00 +15°C° 0.1 mm 4 mps 751 mmHg 89%
    05:00 +14°C° 0.1 mm 4 mps 751 mmHg 91%
    06:00 +15°C° 0.1 mm 5 mps 752 mmHg 89%
    07:00 +16°C° 0.1 mm 5 mps 752 mmHg 87%
    08:00 +16°C° 0.1 mm 6 mps 752 mmHg 85%
    09:00 +16°C° 0 mm 6 mps 752 mmHg 83%
    10:00 +15°C° 0 mm 7 mps 752 mmHg 82%
    11:00 +15°C° 0 mm 7 mps 753 mmHg 80%
    12:00 +15°C° 0 mm 7 mps 753 mmHg 78%
    13:00 +15°C° 0 mm 7 mps 753 mmHg 76%
    14:00 +15°C° 0 mm 7 mps 753 mmHg 74%
    15:00 +15°C° 0.1 mm 7 mps 753 mmHg 75%
    16:00 +15°C° 0.1 mm 6 mps 753 mmHg 75%
    17:00 +15°C° 0.1 mm 6 mps 753 mmHg 76%
    18:00 +15°C° 0.1 mm 5 mps 754 mmHg 76%
    19:00 +14°C° 0.1 mm 5 mps 754 mmHg 77%
    20:00 +14°C° 0.1 mm 5 mps 755 mmHg 77%
    21:00 +13°C° 0.2 mm 5 mps 755 mmHg 78%
    22:00 +13°C° 0.2 mm 5 mps 756 mmHg 78%
    23:00 +12°C° 0.2 mm 4 mps 756 mmHg 79%
    Show more